Havana, Cuba

12:30 PM CDT on August 20, 2018 (GMT -0400)
Jose Marti International

Weather History for MUHA - August, 2018

Change the Weather History Date:

Saturday, August 11, 2018

  Actual Average Record
Temperature  
Mean Temperature 79 °F -  
Max Temperature 89 °F 86 °F 93 °F (1999)
Min Temperature 69 °F 71 °F 69 °F (2008)
Cooling Degree Days 14    
Growing Degree Days 29 (Base 50)    
Moisture  
Dew Point 73 °F    
Average Humidity 85    
Maximum Humidity 100    
Minimum Humidity 59    
Precipitation  
Precipitation 0.00 in - - ()
Sea Level Pressure  
Sea Level Pressure 30.06 in    
Wind  
Wind Speed 3 mph ()    
Max Wind Speed 15 mph    
Max Gust Speed 21 mph    
Visibility 5.2 miles    
Events Rain , Thunderstorm    
Averages and records for this station are not official NWS values.
T = Trace of Precipitation, MM = Missing Value Source: Averaged Metar Reports

Daily Weather History Graph

Daily Weather History Graph

Search for Another Location

Airport or City:

Astronomy

Aug. 11, 2018 Rise Set
Actual Time 7:04 AM CDT 8:04 PM CDT
Civil Twilight 6:40 AM CDT 8:28 PM CDT
Nautical Twilight 6:13 AM CDT 8:56 PM CDT
Astronomical Twilight 5:44 AM CDT 9:24 PM CDT
Moon 7:11 AM CDT (8/11) 8:34 PM CDT (8/11)
Length of Visible Light 13h 47m
Length of Day
13h 00m
New Moon, 0% of the Moon is Illuminated
Aug 11
New Moon
Aug 18
First Quarter
Aug 26
Full
Sep 2
Last Quarter
Sep 9
New

Hourly Weather History & Observations

Time (CDT) Temp. Heat Index Dew Point Humidity Pressure Visibility Wind Dir Wind Speed Gust Speed Precip Events Conditions
12:55 AM 77.0 °F - 73.4 °F 89% 30.06 in - NE 3.5 mph - N/A   Clear
1:55 AM 73.4 °F - 73.4 °F 100% 30.06 in 5.6 mi Calm Calm - N/A   Unknown
2:55 AM 73.4 °F - 71.6 °F 94% 30.04 in 5.6 mi SSW 2.3 mph - N/A   Unknown
3:55 AM 71.6 °F - 71.6 °F 100% 30.04 in 5.0 mi South 1.2 mph - N/A   Unknown
4:55 AM 71.6 °F - 71.6 °F 100% 30.04 in 5.0 mi SW 2.3 mph - N/A   Unknown
5:00 AM 72 °F - 71 °F 97% 30.04 in 5 mi WSW 2.2 mph - -   Haze
5:55 AM 71.6 °F - 71.6 °F 100% 30.04 in 5.0 mi South 1.2 mph - N/A   Unknown
6:55 AM 69.8 °F - 69.8 °F 100% 30.04 in 5.0 mi Variable 2.3 mph - N/A   Partly Cloudy
7:55 AM 73.4 °F - 71.6 °F 94% 30.06 in 5.0 mi Variable 2.3 mph - N/A   Partly Cloudy
8:55 AM 80.6 °F 87.1 °F 77.0 °F 89% 30.06 in 5.6 mi Variable 2.3 mph - N/A   Unknown
9:55 AM 82.4 °F 90.9 °F 77.0 °F 84% 30.06 in 5.6 mi SE 4.6 mph - N/A   Mostly Cloudy
10:55 AM 86.0 °F 95.1 °F 75.2 °F 70% 30.06 in 5.6 mi ESE 3.5 mph - N/A   Scattered Clouds
11:00 AM 86 °F - 76 °F 65% 30.08 in 6 mi 4.5 mph - -   Haze
11:55 AM 87.8 °F 95.6 °F 73.4 °F 62% 30.09 in 5.6 mi Variable 5.8 mph - N/A   Scattered Clouds
12:55 PM 89.6 °F 98.2 °F 73.4 °F 59% 30.06 in 5.6 mi NNE 8.1 mph - N/A   Scattered Clouds
1:55 PM 89.6 °F 98.2 °F 73.4 °F 59% 30.06 in 5.6 mi NE 10.4 mph - N/A   Scattered Clouds
2:55 PM 89.6 °F 99.8 °F 75.2 °F 62% 30.04 in 5.6 mi NNE 15.0 mph - N/A   Scattered Clouds
3:55 PM 87.8 °F 95.6 °F 73.4 °F 62% 30.04 in 5.6 mi NNE 11.5 mph - N/A   Scattered Clouds
4:55 PM 78.8 °F - 71.6 °F 78% 30.04 in 5.6 mi SW 6.9 mph - N/A   Mostly Cloudy
5:45 PM 78.8 °F - 69.8 °F 74% 30.06 in 1.9 mi West 6.9 mph 20.7 mph N/A Rain , Thunderstorm Heavy Thunderstorms and Rain
5:55 PM 77.0 °F - 73.4 °F 89% 2.98 in 1.9 mi WSW 6.9 mph 20.7 mph N/A Rain , Thunderstorm Heavy Thunderstorms and Rain
6:04 PM 73.4 °F - 71.6 °F 94% 30.04 in 4.3 mi West 9.2 mph - N/A Thunderstorm Mostly Cloudy
6:55 PM 75.2 °F - 71.6 °F 89% 30.04 in 5.6 mi Variable 2.3 mph - N/A   Mostly Cloudy
7:55 PM 77.0 °F - 73.4 °F 89% 30.06 in 5.6 mi East 3.5 mph - N/A   Mostly Cloudy
8:55 PM 77.0 °F - 71.6 °F 83% 30.06 in 5.6 mi ESE 3.5 mph - N/A   Mostly Cloudy
9:55 PM 75.2 °F - 73.4 °F 94% 30.06 in 5.6 mi Calm Calm - N/A   Partly Cloudy
10:55 PM 73.4 °F - 73.4 °F 100% 30.09 in 5.6 mi Variable 2.3 mph - N/A   Partly Cloudy
11:00 PM 73 °F - 72 °F 98% 30.11 in 6 mi WSW 2.2 mph - -   Haze
11:55 PM 73.4 °F - 73.4 °F 100% 30.09 in 5.6 mi Variable 2.3 mph - N/A   Partly Cloudy